Weather History for KLRJ - October, 2012

Change the Weather History Date:

Monday, October 8, 2012

  Actual Average Record
Temperature  
Mean Temperature 55 °F -  
Max Temperature 73 °F 68 °F 89 °F (2010)
Min Temperature 37 °F 41 °F 14 °F (2000)
Degree Days  
Heating Degree Days 10    
Growing Degree Days 5 (Base 50)    
Moisture  
Dew Point 31 °F    
Average Humidity 49    
Maximum Humidity 88    
Minimum Humidity 17    
Precipitation  
Precipitation 0.01 in - - ()
Sea Level Pressure  
Sea Level Pressure 29.80 in    
Wind  
Wind Speed 10 mph (SW)    
Max Wind Speed 20 mph    
Max Gust Speed 29 mph    
Visibility 10 miles    
Events Rain    
Averages and records for this station are not official NWS values.
T = Trace of Precipitation, MM = Missing Value Source: NWS Daily Summary

Daily Weather History Graph

Daily Weather History Graph

Search for Another Location

Airport or City:

Trip Planner

Search our weather history database for the weather conditions in past years. The results will help you decide how hot, cold, wet, or windy it might be!

Date:

Astronomy

Oct. 08, 2012 Rise Set
Actual Time 7:30 AM CDT 6:53 PM CDT
Civil Twilight 7:02 AM CDT 7:21 PM CDT
Nautical Twilight 6:29 AM CDT 7:54 PM CDT
Astronomical Twilight 5:56 AM CDT 8:26 PM CDT
Moon 12:02 AM CDT (10/8) 2:51 PM CDT (10/8)
Length of Visible Light 12h 19m
Length of Day
11h 22m
Last Quarter, 46% of the Moon is Illuminated
Oct 8
Last Quarter
Oct 15
New
Oct 21
First Quarter
Oct 29
Full
Nov 6
Last Quarter

Hourly Weather History & Observations

Time (CDT) Temp. Windchill Dew Point Humidity Pressure Visibility Wind Dir Wind Speed Gust Speed Precip Events Conditions
12:15 AM 41.0 °F 34.7 °F 24.8 °F 53% 29.91 in 10.0 mi South 10.4 mph - N/A   Clear
12:35 AM 39.2 °F 32.5 °F 24.8 °F 56% 29.90 in 10.0 mi SSW 10.4 mph - N/A   Clear
12:55 AM 39.2 °F 33.0 °F 24.8 °F 56% 29.90 in 10.0 mi SSW 9.2 mph - N/A   Clear
1:15 AM 37.4 °F 31.4 °F 24.8 °F 60% 29.90 in 10.0 mi SSW 8.1 mph - N/A   Clear
1:35 AM 37.4 °F 32.1 °F 24.8 °F 60% 29.90 in 10.0 mi SSW 6.9 mph - N/A   Clear
1:55 AM 39.2 °F 33.6 °F 26.6 °F 61% 29.90 in 10.0 mi South 8.1 mph - N/A   Clear
2:15 AM 39.2 °F 34.2 °F 26.6 °F 61% 29.89 in 10.0 mi South 6.9 mph - N/A   Clear
2:35 AM 39.2 °F 33.6 °F 26.6 °F 61% 29.89 in 10.0 mi South 8.1 mph - N/A   Clear
2:55 AM 39.2 °F 34.2 °F 26.6 °F 61% 29.89 in 10.0 mi SSW 6.9 mph - N/A   Clear
3:15 AM 39.2 °F 35.0 °F 28.4 °F 65% 29.88 in 10.0 mi South 5.8 mph - N/A   Clear
3:35 AM 39.2 °F 34.2 °F 28.4 °F 65% 29.87 in 10.0 mi SSW 6.9 mph - N/A   Clear
3:55 AM 39.2 °F 34.2 °F 28.4 °F 65% 29.87 in 10.0 mi South 6.9 mph - N/A   Clear
4:15 AM 39.2 °F 33.6 °F 28.4 °F 65% 29.86 in 10.0 mi South 8.1 mph - N/A   Clear
4:35 AM 39.2 °F 33.6 °F 28.4 °F 65% 29.86 in 10.0 mi SSW 8.1 mph - N/A   Clear
4:55 AM 39.2 °F 33.6 °F 28.4 °F 65% 29.86 in 10.0 mi SSW 8.1 mph - N/A   Clear
5:15 AM 39.2 °F 33.6 °F 30.2 °F 70% 29.86 in 10.0 mi South 8.1 mph - N/A   Clear
5:35 AM 39.2 °F 33.6 °F 30.2 °F 70% 29.86 in 10.0 mi SSW 8.1 mph - N/A   Scattered Clouds
5:55 AM 39.2 °F 33.0 °F 30.2 °F 70% 29.86 in 10.0 mi South 9.2 mph - N/A   Scattered Clouds
6:15 AM 39.2 °F 33.6 °F 30.2 °F 70% 29.85 in 10.0 mi SSW 8.1 mph - N/A   Clear
6:35 AM 41.0 °F 35.8 °F 30.2 °F 65% 29.85 in 10.0 mi South 8.1 mph - N/A   Clear
6:55 AM 41.0 °F 35.8 °F 30.2 °F 65% 29.85 in 10.0 mi SSW 8.1 mph - N/A   Scattered Clouds
7:15 AM 41.0 °F 35.2 °F 30.2 °F 65% 29.84 in 10.0 mi South 9.2 mph - N/A   Scattered Clouds
7:35 AM 42.8 °F 38.0 °F 30.2 °F 61% 29.84 in 10.0 mi SSW 8.1 mph - N/A   Scattered Clouds
7:55 AM 42.8 °F 37.0 °F 30.2 °F 61% 29.83 in 10.0 mi South 10.4 mph - N/A   Scattered Clouds
8:15 AM 42.8 °F 38.0 °F 30.2 °F 61% 29.82 in 10.0 mi SSW 8.1 mph - N/A   Mostly Cloudy
8:35 AM 42.8 °F 37.5 °F 30.2 °F 61% 29.82 in 10.0 mi SSW 9.2 mph - N/A   Scattered Clouds
8:55 AM 44.6 °F 38.4 °F 30.2 °F 57% 29.82 in 10.0 mi SSW 12.7 mph 17.3 mph N/A   Clear
9:15 AM 44.6 °F 38.8 °F 30.2 °F 57% 29.82 in 10.0 mi SSW 11.5 mph 17.3 mph N/A   Clear
9:35 AM 46.4 °F 41.1 °F 30.2 °F 53% 29.81 in 10.0 mi SSW 11.5 mph - N/A   Clear
9:55 AM 48.2 °F - 30.2 °F 50% 29.81 in 10.0 mi SSW 18.4 mph 23.0 mph N/A   Clear
10:15 AM 48.2 °F - 30.2 °F 50% 29.81 in 10.0 mi SSW 13.8 mph - N/A   Clear
10:35 AM 51.8 °F - 28.4 °F 41% 29.81 in 10.0 mi SSW 12.7 mph - N/A   Clear
10:55 AM 53.6 °F - 28.4 °F 38% 29.79 in 10.0 mi SSW 18.4 mph 21.9 mph N/A   Clear
11:15 AM 57.2 °F - 28.4 °F 33% 29.79 in 10.0 mi SSW 16.1 mph 19.6 mph N/A   Clear
11:35 AM 57.2 °F - 28.4 °F 33% 29.77 in 10.0 mi SW 16.1 mph 24.2 mph N/A   Clear
11:55 AM 60.8 °F - 26.6 °F 27% 29.77 in 10.0 mi SSW 16.1 mph - N/A   Clear
12:15 PM 64.4 °F - 28.4 °F 26% 29.76 in 10.0 mi SW 19.6 mph 23.0 mph N/A   Clear
12:55 PM 66.2 °F - 26.6 °F 23% 29.74 in 10.0 mi SW 19.6 mph 28.8 mph N/A   Scattered Clouds
1:15 PM 68.0 °F - 24.8 °F 20% 29.74 in 10.0 mi WSW 17.3 mph 26.5 mph N/A   Scattered Clouds
1:35 PM 66.2 °F - 24.8 °F 21% 29.72 in 10.0 mi SW 19.6 mph 27.6 mph N/A   Clear
1:55 PM 68.0 °F - 24.8 °F 20% 29.72 in 10.0 mi WSW 18.4 mph 27.6 mph N/A   Clear
2:15 PM 69.8 °F - 23.0 °F 17% 29.71 in 10.0 mi WSW 19.6 mph 26.5 mph N/A   Scattered Clouds
2:35 PM 69.8 °F - 23.0 °F 17% 29.70 in 10.0 mi SW 19.6 mph 26.5 mph N/A   Scattered Clouds
2:55 PM 69.8 °F - 23.0 °F 17% 29.70 in 10.0 mi SW 17.3 mph 24.2 mph N/A   Scattered Clouds
3:15 PM 69.8 °F - 23.0 °F 17% 29.69 in 10.0 mi WSW 13.8 mph 23.0 mph N/A   Mostly Cloudy
3:35 PM 71.6 °F - 26.6 °F 19% 29.69 in 10.0 mi WSW 17.3 mph 25.3 mph N/A   Scattered Clouds
3:55 PM 71.6 °F - 26.6 °F 19% 29.69 in 10.0 mi West 16.1 mph 20.7 mph N/A   Mostly Cloudy
4:15 PM 73.4 °F - 28.4 °F 19% 29.69 in 10.0 mi West 15.0 mph 23.0 mph N/A   Scattered Clouds
4:35 PM 73.4 °F - 30.2 °F 20% 29.69 in 10.0 mi West 19.6 mph 26.5 mph N/A   Clear
4:55 PM 71.6 °F - 33.8 °F 25% 29.69 in 10.0 mi West 15.0 mph 21.9 mph N/A   Clear
5:15 PM 69.8 °F - 33.8 °F 27% 29.70 in 10.0 mi West 13.8 mph 21.9 mph N/A   Scattered Clouds
5:35 PM 69.8 °F - 33.8 °F 27% 29.71 in 10.0 mi WNW 13.8 mph 18.4 mph N/A   Scattered Clouds
5:55 PM 68.0 °F - 35.6 °F 30% 29.71 in 7.0 mi WNW 11.5 mph 18.4 mph N/A   Mostly Cloudy
6:15 PM 66.2 °F - 35.6 °F 32% 29.72 in 10.0 mi West 8.1 mph - N/A   Scattered Clouds
6:35 PM 66.2 °F - 35.6 °F 32% 29.72 in 10.0 mi West 6.9 mph - N/A   Scattered Clouds
6:55 PM 64.4 °F - 35.6 °F 34% 29.73 in 10.0 mi West 4.6 mph - N/A   Scattered Clouds
7:15 PM 64.4 °F - 35.6 °F 34% 29.74 in 10.0 mi NW 11.5 mph 20.7 mph N/A   Scattered Clouds
7:35 PM 64.4 °F - 35.6 °F 34% 29.75 in 10.0 mi NW 9.2 mph - N/A   Scattered Clouds
7:55 PM 64.4 °F - 35.6 °F 34% 29.75 in 10.0 mi NNW 8.1 mph - N/A   Mostly Cloudy
8:15 PM 62.6 °F - 37.4 °F 39% 29.76 in 10.0 mi NNW 10.4 mph 20.7 mph N/A   Scattered Clouds
8:35 PM 60.8 °F - 41.0 °F 48% 29.78 in 10.0 mi NNW 11.5 mph 20.7 mph N/A   Mostly Cloudy
8:55 PM 60.8 °F - 42.8 °F 52% 29.78 in 10.0 mi North 9.2 mph - N/A Rain Light Rain
9:15 PM 57.2 °F - 44.6 °F 63% 29.79 in 10.0 mi North 4.6 mph - N/A Rain Light Rain
9:35 PM 57.2 °F - 44.6 °F 63% 29.81 in 10.0 mi Calm Calm - N/A Rain Light Rain
9:55 PM 57.2 °F - 44.6 °F 63% 29.82 in 10.0 mi Calm Calm - N/A Rain Light Rain
10:15 PM 53.6 °F - 48.2 °F 82% 29.82 in 7.0 mi Calm Calm - 0.01 in Rain Light Rain
10:55 PM 51.8 °F - 48.2 °F 88% 29.81 in 7.0 mi Calm Calm - 0.01 in Rain Light Rain
11:15 PM 53.6 °F - 48.2 °F 82% 29.79 in 10.0 mi Calm Calm - N/A   Scattered Clouds
11:35 PM 51.8 °F - 48.2 °F 88% 29.79 in 10.0 mi Calm Calm - N/A   Light Drizzle
11:55 PM 51.8 °F - 48.2 °F 88% 29.80 in 10.0 mi WSW 4.6 mph - N/A   Mostly Cloudy